{"data":{"norad_id":65418,"intl_designator":"2025-192Q","name":"STARLINK-34997","alt_names":[],"object_type":"PAYLOAD","status":"ACTIVE","operator":null,"country":"US","launch_date":"2025-08-31","launch_site_code":"AFETR","launch_vehicle":null,"mission":null,"orbit_class":"UNKNOWN","rcs_meters":null,"size_class":null,"mass_kg":null,"dimensions":null,"purposes":["comms"],"wikipedia_slug":null,"has_3d_model":false,"image_url":null,"decayed_at":null,"tle_current":{"epoch":"2026-09-20T16:12:08.430912Z","epoch_age_seconds":99805,"freshness":"FRESH","line1":"1 65418U 25192Q   26263.67509758  .00022516  00000+0  67516-3 0  9992","line2":"2 65418  53.1570  44.8019 0001690  96.2917 263.8278 15.34416923 59269","mean_motion":15.34416923,"eccentricity":0.000169,"inclination_deg":53.157,"raan_deg":44.8019,"arg_perigee_deg":96.2917,"mean_anomaly_deg":263.8278,"bstar":0.00067516,"rev_number":5926,"period_min":93.846723039563,"perigee_km":461.49684844684,"apogee_km":463.80903544722,"semimajor_km":6840.789941947,"source":"CELESTRAK","updated_at":"2026-09-21T09:00:35.605100Z"}}}